CZ-4 DEB

Satellite information

Favourite Embed

Satellite Type and Status

DEBRISIN ORBIT

Key statistics

Satellite CZ-4 DEB at a glance.

Uptime

6441

Days in orbit

Revolutions

≈ 14.2

Per day

Orbit

SSO

Sun Synchronous Orbit

Inclination

98.8

Latest

Satellite identification and parameters

Extended collection of information and parameters for CZ-4 DEB.

Object identification

Identified? True

Debris? True

Object name: CZ-4 DEB

International designator: 2007-042G

Object number (NORAD): 35567

Object ID (CCSDS): 35567

Country: PEOPLES REPUBLIC OF CHINA (PRC)

Current information (Y/N): Y

RCS size: SMALL

Orbital parameters

Period: 101.547 minutes

Inclination: 98.8317 deg

SMA: 7210.06 km

Apoapsis: 842.577 km

Periapsis: 821.274 km

RAAN: 63.1744 deg

Eccentricy: 0.0014773

Argument of periapsis: 331.2817 deg

Mean anomaly: 28.7543 deg

Mean motion: 14.18059439 rev/day

Mean motion (dot): 0.00001754 rev/day2

B* drag term: 0.00087628 1/REarth

Two-line elements (TLE)

Creation date: April 20, 2025, 3:24 a.m.

Reference frame: TEME

Reference center: EARTH

Epoch: April 18, 2025, 2:48 a.m. UTC

TLE line 0: 0 CZ-4 DEB

TLE line 1: 1 35567U 07042G 25108.11712451 .00001754 00000-0 87628-3 0 9998

TLE line 2: 2 35567 98.8317 63.1744 0014773 331.2817 28.7543 14.18059439602524

Live tracking on map

Real-time ground track for satellite CZ-4 DEB.

In-orbit conjunctions

A list of the most updated potential collisions computed for object CZ-4 DEB.

Target Orbit TCA Probability of collision Miss distance Type
METEOR 1-15 LEO 2024-11-16 17:25:47 0.006552593 39.0 (m) PAYLOAD
CZ-6A DEB SSO 2024-11-11 14:34:22 0.0001406706 990.0 (m) DEBRIS

Associated space launch

Chinese-Brazilian Earth observation satellite

CZ-4 DEB was lifted into orbit during the mission ‘Long March 4B | Zi Yuan 1-2B’, on board a Long March 4B space rocket.

The launch took place on Sept. 19, 2007, 3:26 a.m. from Launch Complex 7.

For more information about the launch, click the button.

Launch to space Long March 4B | Zi Yuan 1-2B
Long March 4B | Zi Yuan 1-2B

Agency: N/A

Status: Launch Successful

Launch date: Sept. 19, 2007, 3:26 a.m. UTC

Rocket: Long March 4B

Launch pad: Launch Complex 7

Location: Taiyuan Satellite Launch Center, People's Republic of China

...

Latest news about this satellite

There are no fresh news available about this satellite. Check back as we update our databases every day.


Newsletter sign-up

Weekly statistics, charts and insights to help you stay on top of the space industry.